Overview Statistics Trail Chart Weather Telemetry Raw packets
 

This is the latest recevied weather packets stored in our database for station/object Kirchdorf. If no packets are shown the sender has not sent any weather packets the latest 10 day(s).

<< 12 13 14 15 16 17 18 >>
Time Temp. Humidity Pressure Rain* Wind** Luminosity Snow
1787941930 17.78° C 91% 1015.2 hPa 5.08 mm - - -
1787940131 17.78° C 90% 1015 hPa 5.08 mm - - -
1787938334 18.33° C 87% 1014.5 hPa 4.83 mm - - -
1787936532 18.33° C 86% 1014.7 hPa 4.83 mm - - -
1787934731 19.44° C 81% 1014.1 hPa 4.32 mm - - -
1787932931 19.44° C 80% 1013.9 hPa 4.32 mm - - -
1787931130 20° C 79% 1013.6 hPa 4.32 mm - - -
1787929330 20° C 83% 1013.9 hPa 4.32 mm - - -
1787927530 19.44° C 91% 1013.7 hPa 4.32 mm - - -
1787925730 19.44° C 88% 1014.1 hPa 4.32 mm - - -
1787923930 20° C 89% 1014.1 hPa 4.32 mm - - -
1787922130 19.44° C 93% 1013.9 hPa 4.32 mm - - -
1787920330 19.44° C 93% 1014.5 hPa 4.32 mm - - -
1787918530 19.44° C 85% 1014.9 hPa 2.29 mm - - -
1787916730 21.67° C 80% 1014.1 hPa 0 mm - - -
1787914930 22.22° C 81% 1013 hPa 0 mm - - -
1787913130 20.56° C 85% 1013 hPa 0 mm - - -
1787911331 21.67° C 84% 1013.1 hPa 0 mm - - -
1787909530 22.78° C 84% 1012.9 hPa 0 mm - - -
1787907730 23.33° C 82% 1008.7 hPa 0 mm - - -
1787905930 23.89° C 79% 1008.4 hPa 0 mm - - -
1787904130 22.78° C 83% 1009.1 hPa 0 mm - - -
1787902333 18.33° C 95% 1010.3 hPa 0 mm - - -
1787900530 18.33° C 95% 1010.3 hPa 0 mm - - -
1787898729 18.33° C 95% 1010.3 hPa 0 mm - - -

* Rain since midnight (hover to see other rain measurements)
** Current wind speed in m/s (hover to see current wind gust speed)